Find STARLINK-37917

NORAD ID: 100034 Int'l Des: 2026-161G Owner: SPXS Country: US Constellation: starlink operational

Current View

Loading 3D Globe...

About STARLINK-37917

STARLINK-37917 (NORAD 100034) is a starlink constellation satellite (v2 mini) launched Jul 14, 2026 by SPXS of US. with a mass of 575.00 kg.

Upcoming Passes

Passes for default location (London). Set your location on the main map for personalized predictions.

Altitude History

Loading altitude history...

Two-Line Element Set

1 A0034U 26161G 26224.51414468 .00013090 00000-0 24285-3 0 9999
2 A0034 53.1594 181.5111 0000914 87.8781 272.2333 15.49327894 4601
Epoch: Aug 12, 2026 • Age: 26 hours

Current Status

Altitude 418.7 km
Apogee / Perigee N/A
Velocity 7.66 km/s
Sub-Earth Point 8.84°N, 0.28°E
Launch Date Jul 14, 2026
Age 30 days
Type internet

Technical Details

Classification Payload
Mass 575.00 kg
Dry Mass 530.00 kg
Total Mass 575.00 kg
Length 0.30 m
Diameter 4.10 m
Span 29.00 m
Shape Box + pan
Manufacturer SPXS
Bus Type Starlink V2MO
Phase Status In Orbit
Owner/State SPXS/US

Most Searched